Погода в Цвелодубове

Россия / Санкт-Петербург и Ленинградская область     60°23′15″N   29°33′34″E
темп.,
°C
ветер,
м/с
пор.,
м/с
влажн.,
%
обл.,
%
осадки,
мм/ч
давл.,
гПа
погр.,
м
21 января, пт
пт2100:00−1ю3798100 0.9 986447
03:00−4ю3796100 2.0 988253
06:00−5ююв2697100 0.4 989179
09:00−6ююв249798 0.9 99298
12:00−7вюв1210083 0.1 99554
15:00−6св249792 0.1 997112
18:00−10св2610095 0.0 100094
21:00−5ссв31095100 0.1 1003436
22 января, сб
сб2200:00−5с41094100 0.1 1006417
03:00−6с41194100 0.1 1007533
06:00−6с41193100 0.1 1009590
09:00−6с51293100 0.2 1010613
12:00−6с41194100 0.1 1012620
15:00−4св389399 0.4 1014747
18:00−6ссв2697100 0.1 1017291
21:00−11ссв1110091 0.3 101910
23 января, вс
вс2300:00−15св1110099 0.0 102212
03:00−16всв1110084 0.1 10249
06:00−17в0010089 0.0 10269
09:00−18юв2210096 0.0 102814
12:00−11ююз1295100 0.0 103066
15:00−9ююз249592 0.0 1030166
18:00−12ю269671 0.0 103192
21:00−11ю3995100 0.0 1031149
24 января, пн
пн2400:00−10ю4119353 0.0 1031230
03:00−9ююз4139094 0.0 1030334
06:00−8ююз5158859 0.0 1029381
09:00−8ююз5168626 0.0 1027453
12:00−6ююз6178299 0.0 1025573
15:00−5ююз7187991 0.0 1023625
18:00−5ююз71792100 0.3 1021670
21:00−5ююз61594100 1.3 1019653
25 января, вт
вт2500:00−5ююз51395100 1.1 1017633
03:00−5ююз41196100 3.1 1016560
06:00−5ююз4995100 0.9 1015402
09:00−5ююз2596100 1.0 1015238
12:00−3зсз1396100 0.2 1016169
15:00−2с3895100 0.2 1017484
18:00−8ссз399610 0.0 1020192
21:00−11с289744 0.0 1022139